Tracking 19854 objects as of 22-Sep-2019
HD Live streaming from Space Station
objects crossing your sky now

FENGYUN 1C DEB

Track FENGYUN 1C DEB now!
10-day predictions


NORAD ID: 37065
Int'l Code: 1999-025EEZ
Perigee: 846.0 km
Apogee: 1,317.6 km
Inclination: 103.3 °
Period: 106.7 minutes
Semi major axis: 7452 km
RCS: 0.0153 m2 (small)
Launch date: May 10, 1999
Source: People's Republic of China (PRC)
Launch site: Taiyaun Space Center, China (TSC)

Note: This is SATELLITE DEBRIS
aabbcc
Your satellite tracking list
Your tracking list is empty




NASA's NSSDC Master Catalog

Two Line Element Set (TLE):
1 37065U 99025EEZ 19109.31247888 -.00000270  00000-0 -23220-3 0  9990
2 37065 103.3133 149.4102 0316392  42.8351 319.6960 13.49348448555473
Source of the keplerian elements: AFSPC